User: anonymous   Login
Location: Caracas
(10.5033°N, 66.8422°W)
Time: 09:02:39
(UTC-04:00)
Language:

Vanguard 2 Rocket - Orbit

View from above orbital plane
View from above orbital plane
View from above satellite
View from above satellite

Ground track
Ground track

The orbit data is extracted from the following two-line orbital elements,

1    12U 59001B   18196.61249251 +.00000102 +00000-0 +54043-4 0  9996
2    12 032.9047 289.8843 1667247 340.9669 013.5162 11.44249074199454
Epoch (UTC): 15 July 2018 14:41:59
Eccentricity: 0.1667247
inclination: 32.9047°
perigee height: 553 km
apogee height: 3327 km
right ascension of ascending node: 289.8843°
argument of perigee: 340.9669°
revolutions per day: 11.44249074
mean anomaly at epoch: 13.5162°
orbit number at epoch: 19945

The dashed part of the orbit path shows where the satellite is in the earth's shadow,  

DLR